Location: Goettingen
(51.5300°N, 9.9433°E)
Time: 22:20:00
(UTC+02:00)

ISS - Pass Details

Date: 23 October 2020
Orbit: 418 x 420 km, 51.6° (Epoch: 20 October)

Event Time Altitude Azimuth Distance (km) Brightness Sun altitude
Rises 06:50:43 0° 204° (SSW) 2,350 -0.2 -11.2°
Reaches altitude 10° 06:53:19 10° 182° (S) 1,491 -0.9 -10.8°
Maximum altitude 06:55:31 16° 141° (SE) 1,164 -0.9 -10.4°
Drops below altitude 10° 06:57:42 10° 101° (E) 1,497 0.7 -10.1°
Sets 07:00:20 0° 79° (E) 2,365 1.7 -9.7°
